Location: Ladysmith
(45.4630°N, 91.1040°W)
Time: 18:48:53
(UTC-05:00)

Amateur Radio Satellites - All Passes

Search period start: 29 September 2016 18:18
Search period end: 30 September 2016 18:18
Location: Ladysmith, 45.4630°N, 91.1040°W

Satellite Date Start Highest point End Downlink Frequencies (MHz)
Time Altitude Azimuth
LilacSat-2 29 Sep 18:20:22 18:24:06 73° 76° (ENE) 18:27:53 437.200
Cosmos 2499 29 Sep 18:26:04 18:31:13 19° 61° (ENE) 18:36:33 435.465 / 435.565
O/OREOS (USA 219) 29 Sep 18:26:33 18:29:20 16° 261° (W) 18:32:06 437.305
HORYU 2 29 Sep 18:32:39 18:35:39 18° 268° (W) 18:38:41 437.375
CINEMA 3 29 Sep 18:37:01 18:39:34 15° 63° (ENE) 18:42:04 145.822/145.860
STARS 29 Sep 18:39:30 18:43:19 30° 293° (WNW) 18:47:08 437.465
NOAA 18 29 Sep 18:45:53 18:51:22 80° 256° (WSW) 18:56:52 137.9125
CUSAT 1 29 Sep 18:47:05 18:53:15 44° 89° (E) 19:00:29 437.405
DANDE 29 Sep 18:56:55 19:00:54 19° 78° (ENE) 19:05:34 436.750
GOMX 1 29 Sep 19:02:38 19:07:41 42° 262° (W) 19:12:31 467.674
NOAA 15 29 Sep 19:06:15 19:11:08 37° 263° (W) 19:16:04 137.62
DOVE 4 29 Sep 19:14:04 19:19:01 66° 259° (W) 19:23:41 437.250
COMPASS 1 29 Sep 19:21:30 19:23:59 16° 62° (ENE) 19:26:29 437.405
CUBESAT XI-V 29 Sep 19:24:59 19:28:52 26° 295° (WNW) 19:32:44 437.345
BRITE-PL 29 Sep 19:25:47 19:28:59 15° 272° (W) 19:32:09 437.365/2234.400
CUTE-I 29 Sep 19:29:33 19:34:06 29° 265° (W) 19:38:42 437.470
Cubesat XI-IV 29 Sep 19:30:03 19:34:36 29° 265° (W) 19:39:12 437.490
CUBEBUG 2 29 Sep 19:31:19 19:33:43 15° 62° (ENE) 19:36:07 437.445
STRAND 1 29 Sep 19:37:17 19:41:34 25° 94° (E) 19:45:47 437.568
HO-68 29 Sep 19:38:54 19:46:00 67° 69° (ENE) 19:53:06 435.675
UWE-3 29 Sep 19:45:23 19:47:36 14° 62° (ENE) 19:49:48 435.000/436.395/437.385
SEEDS 29 Sep 19:52:02 19:56:01 43° 71° (ENE) 20:00:03 437.485
CUTE 1.7 + AOD 2 29 Sep 19:54:07 19:58:18 65° 74° (ENE) 20:02:33 437.475
CANX-2 29 Sep 19:55:44 19:59:58 78° 75° (ENE) 20:04:15 2200.000
GONETS M04 29 Sep 19:58:13 20:07:06 76° 80° (E) 20:15:51
Oscar 11 29 Sep 20:04:02 20:06:29 15° 61° (ENE) 20:08:57 145.826/435.025
AAUSAT CUBESAT 2 29 Sep 20:08:55 20:12:44 36° 70° (ENE) 20:16:35 437.432
RS-15 29 Sep 20:09:09 20:20:35 67° 117° (ESE) 20:32:37 29.354- 29.394
ZACube-1 29 Sep 20:09:43 20:12:18 16° 63° (ENE) 20:14:54 437.345
CINEMA 3 29 Sep 20:11:56 20:16:19 59° 259° (W) 20:20:33 145.822/145.860
Cosmos 2499 29 Sep 20:17:47 20:25:23 87° 82° (E) 20:33:35 435.465 / 435.565
ISS 29 Sep 20:24:35 20:27:44 50° 145° (SE) 20:30:55 145.825
CUSAT 1 29 Sep 20:28:57 20:35:17 42° 292° (WNW) 20:42:41 437.405
NOAA 18 29 Sep 20:31:19 20:32:52 11° 273° (W) 20:34:26 137.9125
DANDE 29 Sep 20:37:00 20:42:31 74° 284° (WNW) 20:49:48 436.750
AO-85 29 Sep 20:52:11 20:57:09 48° 120° (ESE) 21:01:50 145.980
COMPASS 1 29 Sep 20:54:59 20:59:05 57° 259° (W) 21:03:15 437.405
FUNcube-1 29 Sep 21:00:55 21:04:54 49° 72° (ENE) 21:08:56 145.935
CUBEBUG 2 29 Sep 21:05:50 21:09:56 56° 260° (W) 21:14:01 437.445
DELFI C3 29 Sep 21:11:43 21:15:09 27° 68° (ENE) 21:18:35 145.870
STRAND 1 29 Sep 21:16:01 21:20:55 45° 291° (WNW) 21:25:47 437.568
UWE-3 29 Sep 21:19:30 21:23:36 60° 259° (W) 21:27:43 435.000/436.395/437.385
HO-68 29 Sep 21:28:29 21:34:15 26° 268° (W) 21:40:03 435.675
SEEDS 29 Sep 21:28:58 21:31:56 18° 268° (W) 21:34:56 437.485
PRISM 29 Sep 21:29:54 21:33:34 30° 96° (E) 21:37:11 437.425
CUTE 1.7 + AOD 2 29 Sep 21:32:43 21:34:35 13° 271° (W) 21:36:29 437.475
CANX-2 29 Sep 21:35:35 21:36:23 10° 273° (W) 21:37:11 2200.000
Oscar 11 29 Sep 21:37:51 21:42:07 63° 259° (WSW) 21:46:26 145.826/435.025
ZACube-1 29 Sep 21:44:11 21:48:12 51° 260° (W) 21:52:16 437.345
AAUSAT CUBESAT 2 29 Sep 21:45:05 21:48:19 22° 267° (W) 21:51:36 437.432
HUMSAT D 29 Sep 21:46:18 21:49:59 33° 69° (ENE) 21:53:43 437.325/437.525
GONETS M04 29 Sep 21:56:16 22:02:58 25° 281° (W) 22:09:37
ISS 29 Sep 22:01:14 22:04:19 37° 343° (NNW) 22:07:24 145.825
SO-50 29 Sep 22:01:17 22:04:21 17° 32° (NNE) 22:07:20 436.795
Cosmos 2499 29 Sep 22:12:34 22:17:35 19° 281° (W) 22:22:49 435.465 / 435.565
CUSAT 1 29 Sep 22:19:07 22:19:46 10° 315° (NW) 22:20:25 437.405
RS-15 29 Sep 22:22:23 22:33:46 49° 323° (NW) 22:45:41 29.354- 29.394
DANDE 29 Sep 22:23:24 22:27:02 16° 309° (NW) 22:31:07 436.750
AO-85 29 Sep 22:33:17 22:37:47 31° 317° (NW) 22:42:01 145.980
UNISAT 6 29 Sep 22:34:28 22:38:01 23° 94° (E) 22:41:36 437.425
FUNcube-1 29 Sep 22:39:00 22:41:28 15° 270° (W) 22:43:56 145.935
DELFI C3 29 Sep 22:46:32 22:49:56 26° 265° (W) 22:53:21 145.870
M-CUBED/EXP-1 PRIME 29 Sep 22:47:09 22:49:02 13° 58° (ENE) 22:50:52 437.505
CUBEBUG 1 29 Sep 22:50:11 22:53:24 20° 64° (ENE) 22:56:36 437.445
VELOX 1 29 Sep 22:52:05 22:54:57 17° 62° (ENE) 22:57:49 145.980
ESTCUBE 1 29 Sep 23:00:31 23:04:41 37° 69° (ENE) 23:08:54 437.505/2401.250
PRISM 29 Sep 23:05:20 23:08:46 26° 294° (WNW) 23:12:11 437.425
ANTELSAT 29 Sep 23:09:14 23:13:33 51° 100° (E) 23:17:57 437.575/2403.000
SPROUT 29 Sep 23:21:04 23:23:54 18° 63° (ENE) 23:26:44 437.525
HUMSAT D 29 Sep 23:22:27 23:25:41 22° 267° (W) 23:28:57 437.325/437.525
TIGRISAT 29 Sep 23:29:05 23:33:31 78° 104° (ESE) 23:38:01 435.000
50 SAT 29 Sep 23:36:16 23:39:38 36° 71° (ENE) 23:43:02 437.505
POPSAT HIP 1 29 Sep 23:36:37 23:38:42 13° 90° (E) 23:40:47 437.405
ISS 29 Sep 23:38:30 23:41:22 27° 4° (N) 23:44:13 145.825
UKube-1 29 Sep 23:38:55 23:42:25 24° 65° (ENE) 23:45:54 .
AUBIESAT-1 29 Sep 23:40:13 23:43:50 36° 66° (ENE) 23:47:15 437.475
SO-50 29 Sep 23:40:58 23:45:35 80° 55° (NE) 23:50:04 436.795
AISAT 29 Sep 23:43:12 23:47:33 54° 72° (ENE) 23:51:54 437.250
JAS-2 29 Sep 23:43:48 23:49:55 24° 87° (E) 23:55:47 435.910
Cosmos 2491 29 Sep 23:47:28 23:50:56 13° 49° (NE) 23:54:22 435.465 / 435.565
NANOSAT C BR1 29 Sep 23:50:40 23:53:36 18° 92° (E) 23:56:32 145.865
UNISAT 6 30 Sep 00:10:45 00:14:50 38° 290° (WNW) 00:19:00 437.425
DX 1 30 Sep 00:10:51 00:15:11 65° 73° (ENE) 00:19:32 434.975-435.025
QB50P2 30 Sep 00:15:32 00:19:28 37° 97° (E) 00:23:24 145.880/145.840
POLYITAN 1 30 Sep 00:17:42 00:21:39 37° 98° (E) 00:25:35 437.675
M-CUBED/EXP-1 PRIME 30 Sep 00:19:11 00:23:13 63° 253° (WSW) 00:26:57 437.505
CUBEBUG 1 30 Sep 00:25:07 00:29:22 46° 261° (W) 00:33:38 437.445
VELOX 1 30 Sep 00:26:36 00:30:59 57° 259° (W) 00:35:23 145.980
TISAT 1 30 Sep 00:32:56 00:36:04 21° 65° (ENE) 00:39:11 437.305
BEESAT 2 30 Sep 00:36:58 00:39:46 19° 113° (ESE) 00:42:36 435.950
ESTCUBE 1 30 Sep 00:37:53 00:41:35 24° 266° (W) 00:45:19 437.505/2401.250
RS-15 30 Sep 00:39:48 00:50:10 31° 356° (N) 01:00:44 29.354- 29.394
BUGSAT 1 30 Sep 00:45:46 00:49:10 26° 95° (E) 00:52:35 437.445
ANTELSAT 30 Sep 00:46:51 00:49:55 19° 297° (WNW) 00:53:02 437.575/2403.000
DUCHIFAT 1 30 Sep 00:52:13 00:56:26 77° 103° (ESE) 01:00:37 145.980
SPROUT 30 Sep 00:55:19 00:59:28 50° 260° (W) 01:03:38 437.525
QB50P1 30 Sep 00:56:53 01:01:07 83° 285° (WNW) 01:05:20 145.935-145.965
TIGRISAT 30 Sep 01:07:36 01:09:38 13° 300° (WNW) 01:11:41 435.000
POPSAT HIP 1 30 Sep 01:10:43 01:14:52 60° 287° (WNW) 01:19:01 437.405
50 SAT 30 Sep 01:10:55 01:13:17 16° 268° (W) 01:15:39 437.505
Oscar 19 30 Sep 01:11:14 01:13:12 12° 87° (E) 01:15:11 437.125/150
BEESAT 3 30 Sep 01:12:57 01:16:51 87° 129° (SE) 01:20:49 437.485
UKube-1 30 Sep 01:14:17 01:18:16 35° 262° (W) 01:22:17 .
ISS 30 Sep 01:15:03 01:18:18 55° 23° (NNE) 01:21:32 145.825
AUBIESAT-1 30 Sep 01:15:32 01:18:23 19° 260° (W) 01:21:06 437.475
AISAT 30 Sep 01:21:31 01:24:21 16° 269° (W) 01:27:10 437.250
SO-50 30 Sep 01:23:16 01:25:22 13° 252° (WSW) 01:27:27 436.795
NANOSAT C BR1 30 Sep 01:25:33 01:29:33 43° 289° (WNW) 01:33:32 145.865
JAS-2 30 Sep 01:27:47 01:35:42 79° 287° (WNW) 01:43:12 435.910
Cosmos 2491 30 Sep 01:41:34 01:50:15 55° 74° (ENE) 01:58:50 435.465 / 435.565
DX 1 30 Sep 01:49:38 01:51:49 13° 270° (W) 01:53:59 434.975-435.025
QB50P2 30 Sep 01:51:47 01:55:04 22° 295° (WNW) 01:58:21 145.880/145.840
POLYITAN 1 30 Sep 01:53:58 01:57:14 22° 295° (WNW) 02:00:31 437.675
ITUPSAT 1 30 Sep 01:56:32 02:00:47 33° 67° (ENE) 02:05:03 437.325
TISAT 1 30 Sep 02:07:32 02:11:28 39° 262° (W) 02:15:25 437.305
SWISSCUBE 30 Sep 02:07:57 02:12:30 47° 70° (ENE) 02:17:06 437.505
BEESAT 2 30 Sep 02:13:26 02:17:16 46° 311° (NW) 02:21:08 435.950
BEESAT 30 Sep 02:20:34 02:25:12 56° 71° (ENE) 02:29:53 436.000
BUGSAT 1 30 Sep 02:21:05 02:24:31 28° 293° (WNW) 02:27:58 437.445
Gurwin Techsat 1B 30 Sep 02:25:28 02:30:05 29° 95° (E) 02:34:41 435.225
DUCHIFAT 1 30 Sep 02:29:54 02:31:32 12° 300° (WNW) 02:33:09 145.980
YUBILEINY 30 Sep 02:42:48 02:51:06 49° 88° (E) 02:59:22 435.215
Oscar 19 30 Sep 02:48:04 02:53:15 89° 285° (WNW) 02:58:24 437.125/150
ISS 30 Sep 02:51:50 02:54:37 26° 221° (SW) 02:57:24 145.825
BEESAT 3 30 Sep 02:52:43 02:55:04 15° 325° (NW) 02:57:28 437.485
RS-15 30 Sep 02:55:27 03:07:02 43° 30° (NNE) 03:18:30 29.354- 29.394
AO-7 30 Sep 02:59:45 03:03:07 13° 85° (E) 03:06:28 29.400- 29.500
JAS-2 30 Sep 03:14:06 03:19:29 21° 308° (NW) 03:24:46 435.910
AIST 2 30 Sep 03:18:23 03:22:05 34° 117° (ESE) 03:25:50 435.215
MOZHAYETS 4 30 Sep 03:26:14 03:30:35 44° 70° (ENE) 03:34:58
ITUPSAT 1 30 Sep 03:34:25 03:38:37 30° 264° (W) 03:42:51 437.325
KKS-1 30 Sep 03:34:36 03:38:40 36° 68° (ENE) 03:42:44 437.445
Cosmos 2491 30 Sep 03:38:56 03:46:45 37° 276° (W) 03:54:32 435.465 / 435.565
AO-85 30 Sep 03:42:52 03:45:05 14° 30° (NNE) 03:47:14 145.980
PCSat 30 Sep 03:44:03 03:48:37 29° 110° (ESE) 03:53:13 145.827
ITAMSAT 1 30 Sep 03:46:24 03:51:24 44° 99° (E) 03:56:22 435.822/435.867
SWISSCUBE 30 Sep 03:46:57 03:50:33 21° 267° (W) 03:54:10 437.505
BEESAT 2 30 Sep 03:55:50 03:56:05 10° 332° (NNW) 03:56:19 435.950
BEESAT 30 Sep 04:00:09 04:03:21 18° 269° (W) 04:06:35 436.000
STARS 30 Sep 04:01:44 04:05:41 33° 68° (ENE) 04:09:38 437.465
Cosmos 2504 30 Sep 04:01:45 04:08:52 57° 92° (E) 04:15:50 435.465 / 435.565
Gurwin Techsat 1B 30 Sep 04:05:10 04:10:08 41° 293° (WNW) 04:15:04 435.225
Oscar 19 30 Sep 04:29:12 04:31:50 14° 304° (WNW) 04:34:27 437.125/150
YUBILEINY 30 Sep 04:39:52 04:48:02 41° 290° (WNW) 04:56:13 435.215
AIST 1 30 Sep 04:48:22 04:52:09 29° 90° (E) 04:55:54
AO-7 30 Sep 04:49:12 04:57:29 66° 105° (ESE) 05:05:43 29.400- 29.500
CUBESAT XI-V 30 Sep 04:52:21 04:56:51 47° 71° (ENE) 05:01:23 437.345
AIST 2 30 Sep 04:56:55 05:00:35 30° 316° (NW) 05:04:18 435.215
MOZHAYETS 4 30 Sep 05:04:30 05:07:57 21° 268° (W) 05:11:26
RS-15 30 Sep 05:08:33 05:21:00 84° 238° (WSW) 05:33:09 29.354- 29.394
KKS-1 30 Sep 05:11:39 05:15:18 24° 265° (W) 05:18:58 437.445
CUSAT 1 30 Sep 05:19:11 05:26:23 39° 67° (ENE) 05:32:29 437.405
AO-85 30 Sep 05:22:11 05:26:24 69° 52° (NE) 05:30:20 145.980
ITAMSAT 1 30 Sep 05:26:17 05:30:40 28° 297° (WNW) 05:35:01 435.822/435.867
PCSat 30 Sep 05:26:32 05:31:46 48° 308° (NW) 05:37:03 145.827
DANDE 30 Sep 05:30:26 05:37:18 27° 61° (ENE) 05:43:52 436.750
STARS 30 Sep 05:38:26 05:42:04 25° 265° (W) 05:45:45 437.465
BRITE-PL 30 Sep 05:48:25 05:52:05 22° 91° (E) 05:55:32 437.365/2234.400
Cosmos 2504 30 Sep 05:56:30 06:02:39 29° 293° (WNW) 06:08:45 435.465 / 435.565
CUTE-I 30 Sep 06:05:18 06:07:49 13° 88° (E) 06:10:21 437.470
Cubesat XI-IV 30 Sep 06:05:57 06:08:29 13° 88° (E) 06:11:01 437.490
HORYU 2 30 Sep 06:19:22 06:23:50 72° 102° (ESE) 06:28:17 437.375
AIST 1 30 Sep 06:25:56 06:29:42 27° 288° (WNW) 06:33:28
CUBESAT XI-V 30 Sep 06:30:57 06:34:28 21° 268° (W) 06:38:00 437.345
AO-7 30 Sep 06:42:37 06:49:45 34° 305° (NW) 06:56:54 29.400- 29.500
STRAND 1 30 Sep 06:55:06 06:59:56 45° 68° (ENE) 07:04:48 437.568
O/OREOS (USA 219) 30 Sep 07:00:14 07:04:34 45° 108° (ESE) 07:08:57 437.305
CUSAT 1 30 Sep 07:01:18 07:08:32 46° 270° (W) 07:14:35 437.405
GOMX 1 30 Sep 07:02:27 07:06:43 49° 99° (E) 07:10:47 467.674
AO-85 30 Sep 07:04:28 07:06:09 12° 252° (WSW) 07:07:47 145.980
NOAA 18 30 Sep 07:05:50 07:10:52 36° 97° (E) 07:15:52 137.9125
GONETS M04 30 Sep 07:09:29 07:14:45 18° 74° (ENE) 07:20:01
DOVE 4 30 Sep 07:11:18 07:14:47 25° 94° (E) 07:18:13 437.250
Cosmos 2499 30 Sep 07:12:07 07:12:48 10° 73° (ENE) 07:13:29 435.465 / 435.565
DANDE 30 Sep 07:12:36 07:21:04 82° 262° (W) 07:28:48 436.750
PCSat 30 Sep 07:14:00 07:16:32 13° 331° (NNW) 07:19:06 145.827
NOAA 15 30 Sep 07:18:31 07:23:51 70° 104° (ESE) 07:29:06 137.62
RS-15 30 Sep 07:22:42 07:31:38 25° 261° (W) 07:40:27 29.354- 29.394
LilacSat-2 30 Sep 07:25:32 07:29:23 83° 102° (ESE) 07:33:14 437.200
BRITE-PL 30 Sep 07:26:18 07:30:50 42° 291° (WNW) 07:35:01 437.365/2234.400
CANX-2 30 Sep 07:40:33 07:42:11 12° 88° (E) 07:43:49 2200.000
CUTE-I 30 Sep 07:43:11 07:48:34 87° 284° (WNW) 07:53:57 437.470
Cubesat XI-IV 30 Sep 07:43:52 07:49:16 87° 284° (WNW) 07:54:38 437.490
BEESAT 3 30 Sep 07:51:19 07:53:54 16° 36° (NE) 07:56:28 437.485
HORYU 2 30 Sep 07:57:28 07:59:50 14° 300° (WNW) 08:02:12 437.375
CINEMA 3 30 Sep 08:04:23 08:07:52 25° 95° (E) 08:11:23 145.822/145.860
PRISM 30 Sep 08:21:12 08:24:51 30° 68° (ENE) 08:28:31 437.425
STRAND 1 30 Sep 08:35:10 08:39:18 25° 267° (W) 08:43:29 437.568
COMPASS 1 30 Sep 08:36:13 08:39:18 20° 92° (E) 08:42:23 437.405
O/OREOS (USA 219) 30 Sep 08:40:30 08:44:11 23° 307° (NW) 08:47:55 437.305
GOMX 1 30 Sep 08:41:30 08:44:26 18° 298° (WNW) 08:47:16 467.674
NOAA 18 30 Sep 08:46:33 08:51:29 36° 295° (WNW) 08:56:26 137.9125
DOVE 4 30 Sep 08:48:52 08:52:32 30° 292° (WNW) 08:56:09 437.250
HO-68 30 Sep 08:51:40 08:58:43 57° 102° (ESE) 09:05:43 435.675
BEESAT 2 30 Sep 08:51:46 08:55:15 27° 43° (NE) 08:58:42 435.950
CUBEBUG 2 30 Sep 08:54:19 08:57:50 24° 94° (E) 09:01:27 437.445
DANDE 30 Sep 08:57:07 09:02:34 20° 282° (WNW) 09:07:47 436.750
Cosmos 2499 30 Sep 08:57:22 09:04:22 66° 94° (E) 09:11:23 435.465 / 435.565
TIGRISAT 30 Sep 08:57:50 08:58:05 10° 58° (ENE) 08:58:19 435.000
NOAA 15 30 Sep 08:59:27 09:03:04 19° 301° (WNW) 09:06:39 137.62
GONETS M04 30 Sep 09:01:15 09:10:05 81° 96° (E) 09:18:59
UWE-3 30 Sep 09:06:56 09:10:22 22° 94° (E) 09:13:51 435.000/436.395/437.385
SEEDS 30 Sep 09:08:57 09:13:12 63° 101° (E) 09:17:24 437.485
CUTE 1.7 + AOD 2 30 Sep 09:12:23 09:16:43 84° 284° (WNW) 09:21:01 437.475
CANX-2 30 Sep 09:14:13 09:18:32 71° 285° (WNW) 09:22:48 2200.000
Oscar 11 30 Sep 09:23:27 09:26:44 20° 92° (E) 09:29:59 145.826/435.025
AAUSAT CUBESAT 2 30 Sep 09:23:54 09:28:00 49° 99° (E) 09:32:03 437.432
CUTE-I 30 Sep 09:25:01 09:27:50 15° 304° (NW) 09:30:40 437.470
Cubesat XI-IV 30 Sep 09:25:44 09:28:33 15° 304° (NW) 09:31:22 437.490
BEESAT 3 30 Sep 09:28:04 09:32:03 80° 236° (SW) 09:36:01 437.485
ZACube-1 30 Sep 09:30:10 09:33:47 25° 94° (E) 09:37:27 437.345
UNISAT 6 30 Sep 09:35:40 09:39:10 26° 66° (ENE) 09:42:42 437.425
CINEMA 3 30 Sep 09:41:21 09:45:03 31° 291° (WNW) 09:48:49 145.822/145.860
PRISM 30 Sep 09:56:37 10:00:09 26° 265° (W) 10:03:41 437.425
PHONESAT 2.4 30 Sep 09:58:18 09:59:35 12° 156° (SSE) 10:00:53 2401.200-2431.200
JAS-2 30 Sep 10:00:26 10:04:12 15° 48° (NE) 10:08:08 435.910
AIST 2 30 Sep 10:00:46 10:01:48 11° 28° (NNE) 10:02:50 435.215
ANTELSAT 30 Sep 10:10:09 10:14:19 56° 73° (ENE) 10:18:30 437.575/2403.000
COMPASS 1 30 Sep 10:11:04 10:15:03 40° 289° (WNW) 10:18:59 437.405
QB50P1 30 Sep 10:19:00 10:20:08 11° 59° (ENE) 10:21:17 145.935-145.965
DELFI C3 30 Sep 10:21:13 10:24:52 32° 97° (E) 10:28:28 145.870
FUNcube-1 30 Sep 10:22:11 10:26:33 81° 102° (ESE) 10:31:00 145.935
BEESAT 2 30 Sep 10:29:25 10:33:08 37° 242° (WSW) 10:36:50 435.950
TIGRISAT 30 Sep 10:29:49 10:34:04 87° 76° (ENE) 10:38:21 435.000
CUBEBUG 2 30 Sep 10:30:38 10:34:31 34° 291° (WNW) 10:38:31 437.445
POPSAT HIP 1 30 Sep 10:31:30 10:33:48 15° 61° (ENE) 10:36:06 437.405
HO-68 30 Sep 10:39:55 10:46:06 33° 301° (WNW) 10:52:15 435.675
UWE-3 30 Sep 10:42:55 10:46:55 38° 290° (WNW) 10:51:01 435.000/436.395/437.385
NANOSAT C BR1 30 Sep 10:45:07 10:48:03 19° 64° (ENE) 10:51:00 145.865
SEEDS 30 Sep 10:46:02 10:48:24 15° 298° (WNW) 10:50:45 437.485
PCSat 30 Sep 10:47:09 10:48:59 12° 25° (NNE) 10:50:49 145.827
CUTE 1.7 + AOD 2 30 Sep 10:51:25 10:51:50 10° 302° (WNW) 10:52:14 437.475
Cosmos 2499 30 Sep 10:52:33 10:58:08 24° 295° (WNW) 11:03:45 435.465 / 435.565
Oscar 11 30 Sep 10:58:56 11:03:02 41° 290° (WNW) 11:07:07 145.826/435.025
AAUSAT CUBESAT 2 30 Sep 11:00:19 11:03:07 17° 297° (WNW) 11:05:53 437.432
GONETS M04 30 Sep 11:00:59 11:07:59 25° 298° (WNW) 11:15:03
HUMSAT D 30 Sep 11:02:18 11:06:27 47° 99° (E) 11:10:35 437.325/437.525
ZACube-1 30 Sep 11:06:11 11:10:06 34° 291° (WNW) 11:14:06 437.345
QB50P2 30 Sep 11:10:06 11:13:58 37° 69° (ENE) 11:17:51 145.880/145.840
UNISAT 6 30 Sep 11:11:58 11:15:47 32° 264° (W) 11:19:38 437.425
POLYITAN 1 30 Sep 11:12:17 11:16:09 37° 70° (ENE) 11:20:01 437.675
PHONESAT 2.4 30 Sep 11:32:35 11:35:08 27° 172° (S) 11:37:42 2401.200-2431.200
AIST 2 30 Sep 11:37:14 11:41:19 46° 49° (NE) 11:45:22 435.215
BUGSAT 1 30 Sep 11:37:38 11:40:59 25° 67° (ENE) 11:44:20 437.445
JAS-2 30 Sep 11:41:03 11:47:39 63° 69° (ENE) 11:55:03 435.910
DUCHIFAT 1 30 Sep 11:45:50 11:49:59 74° 74° (ENE) 11:54:10 145.980
ANTELSAT 30 Sep 11:49:06 11:51:25 14° 270° (W) 11:53:43 437.575/2403.000
QB50P1 30 Sep 11:51:03 11:55:15 85° 256° (WSW) 11:59:29 145.935-145.965
DELFI C3 30 Sep 11:56:21 11:59:33 23° 294° (WNW) 12:02:43 145.870
FUNcube-1 30 Sep 12:00:28 12:02:12 12° 300° (WNW) 12:03:57 145.935
POPSAT HIP 1 30 Sep 12:04:58 12:09:07 61° 259° (W) 12:13:17 437.405
CUBEBUG 1 30 Sep 12:11:40 12:15:21 26° 95° (E) 12:18:59 437.445
VELOX 1 30 Sep 12:14:58 12:18:26 22° 94° (E) 12:21:51 145.980
NANOSAT C BR1 30 Sep 12:19:29 12:23:29 44° 261° (W) 12:27:31 145.865
ESTCUBE 1 30 Sep 12:27:00 12:31:31 60° 101° (E) 12:35:59 437.505/2401.250
PCSat 30 Sep 12:28:51 12:33:57 40° 49° (NE) 12:39:02 145.827
Oscar 19 30 Sep 12:29:10 12:33:16 24° 62° (ENE) 12:37:24 437.125/150
50 SAT 30 Sep 12:34:59 12:38:19 32° 97° (E) 12:41:36 437.505
HUMSAT D 30 Sep 12:38:46 12:41:44 19° 296° (WNW) 12:44:42 437.325/437.525
SPROUT 30 Sep 12:39:20 12:42:43 23° 94° (E) 12:46:05 437.525
QB50P2 30 Sep 12:46:40 12:49:53 21° 267° (W) 12:53:08 145.880/145.840
POLYITAN 1 30 Sep 12:48:51 12:52:04 21° 266° (W) 12:55:18 437.675
YUBILEINY 30 Sep 12:50:12 12:57:22 27° 63° (ENE) 13:04:29 435.215
AUBIESAT-1 30 Sep 12:51:30 12:53:26 15° 99° (E) 12:55:23 437.475
Cosmos 2491 30 Sep 12:57:05 12:58:55 11° 69° (ENE) 13:00:45 435.465 / 435.565
UKube-1 30 Sep 12:58:57 13:02:46 30° 96° (E) 13:06:35 .
AISAT 30 Sep 13:07:18 13:11:43 81° 100° (E) 13:16:06 437.250
PHONESAT 2.4 30 Sep 13:08:18 13:10:50 27° 189° (S) 13:13:23 2401.200-2431.200
BUGSAT 1 30 Sep 13:12:40 13:16:16 29° 263° (W) 13:19:52 437.445
AIST 2 30 Sep 13:16:20 13:19:31 21° 247° (WSW) 13:22:41 435.215
DUCHIFAT 1 30 Sep 13:25:12 13:26:11 11° 272° (W) 13:27:10 145.980
JAS-2 30 Sep 13:27:36 13:33:13 28° 271° (W) 13:39:24 435.910
M-CUBED/EXP-1 PRIME 30 Sep 13:30:25 13:33:39 57° 107° (ESE) 13:36:53 437.505
ITAMSAT 1 30 Sep 13:30:35 13:32:59 13° 55° (NE) 13:35:25 435.822/435.867
DX 1 30 Sep 13:32:48 13:37:11 89° 113° (ESE) 13:41:30 434.975-435.025
CUBEBUG 1 30 Sep 13:47:48 13:51:39 31° 292° (WNW) 13:55:27 437.445
Gurwin Techsat 1B 30 Sep 13:48:30 13:53:42 57° 71° (ENE) 13:58:55 435.225
TISAT 1 30 Sep 13:49:14 13:52:42 25° 95° (E) 13:56:10 437.305
Cosmos 2504 30 Sep 13:50:53 13:56:39 23° 64° (ENE) 14:02:39 435.465 / 435.565
VELOX 1 30 Sep 13:50:55 13:55:01 39° 291° (WNW) 13:59:06 145.980
SO-50 30 Sep 13:58:45 14:01:38 16° 110° (ESE) 14:04:30 436.795
AO-7 30 Sep 14:00:05 14:06:44 28° 51° (NE) 14:13:22 29.400- 29.500
ESTCUBE 1 30 Sep 14:04:57 14:07:51 17° 299° (WNW) 14:10:46 437.505/2401.250
Oscar 19 30 Sep 14:07:14 14:12:17 50° 261° (W) 14:17:21 437.125/150
50 SAT 30 Sep 14:08:55 14:11:36 19° 294° (WNW) 14:14:16 437.505
PCSat 30 Sep 14:12:23 14:17:19 36° 248° (WSW) 14:22:11 145.827
SPROUT 30 Sep 14:14:51 14:18:45 35° 291° (WNW) 14:22:38 437.525
BEESAT 30 Sep 14:20:30 14:22:18 12° 88° (E) 14:24:05 436.000
AUBIESAT-1 30 Sep 14:25:02 14:28:04 33° 295° (WNW) 14:31:06 437.475
UKube-1 30 Sep 14:35:04 14:38:45 28° 294° (WNW) 14:42:25 .
Cosmos 2491 30 Sep 14:45:08 14:53:39 58° 91° (E) 15:02:15 435.465 / 435.565
PHONESAT 2.4 30 Sep 14:45:14 14:46:22 12° 205° (SSW) 14:47:30 2401.200-2431.200
AISAT 30 Sep 14:45:43 14:47:33 12° 301° (WNW) 14:49:24 437.250
YUBILEINY 30 Sep 14:46:23 14:55:04 74° 266° (W) 15:03:42 435.215
ITAMSAT 1 30 Sep 15:06:29 15:11:39 83° 74° (ENE) 15:16:52 435.822/435.867
M-CUBED/EXP-1 PRIME 30 Sep 15:07:17 15:07:46 10° 304° (NW) 15:08:14 437.505
DX 1 30 Sep 15:11:21 15:12:40 11° 302° (WNW) 15:14:00 434.975-435.025
TISAT 1 30 Sep 15:24:41 15:28:22 31° 292° (WNW) 15:32:02 437.305
O/OREOS (USA 219) 30 Sep 15:29:26 15:32:37 18° 50° (NE) 15:35:46 437.305
Gurwin Techsat 1B 30 Sep 15:30:06 15:34:00 21° 268° (W) 15:37:57 435.225
ITUPSAT 1 30 Sep 15:31:48 15:36:34 57° 101° (E) 15:41:17 437.325
SO-50 30 Sep 15:36:44 15:41:34 75° 308° (NW) 15:46:21 436.795
SWISSCUBE 30 Sep 15:43:13 15:48:03 83° 106° (ESE) 15:52:51 437.505
Cosmos 2504 30 Sep 15:43:19 15:50:46 76° 265° (W) 15:58:44 435.465 / 435.565
HORYU 2 30 Sep 15:46:39 15:47:48 11° 57° (ENE) 15:48:59 437.375
AO-7 30 Sep 15:50:22 15:58:42 81° 252° (WSW) 16:07:04 29.400- 29.500
BEESAT 30 Sep 15:55:52 16:00:42 83° 286° (WNW) 16:05:29 436.000
AIST 1 30 Sep 16:29:47 16:34:06 90° 278° (W) 16:38:22
GOMX 1 30 Sep 16:38:00 16:39:29 11° 57° (ENE) 16:40:56 467.674
Cosmos 2491 30 Sep 16:43:02 16:50:56 36° 293° (WNW) 16:58:54 435.465 / 435.565
YUBILEINY 30 Sep 16:45:47 16:50:14 15° 287° (WNW) 16:54:42 435.215
ITAMSAT 1 30 Sep 16:49:18 16:51:47 13° 272° (W) 16:54:16 435.822/435.867
MOZHAYETS 4 30 Sep 16:55:39 17:00:20 79° 103° (ESE) 17:04:58
NOAA 18 30 Sep 16:57:08 16:59:56 14° 54° (NE) 17:02:44 137.9125
KKS-1 30 Sep 16:59:16 17:03:36 52° 100° (E) 17:07:55 437.445
BRITE-PL 30 Sep 16:59:47 17:04:57 38° 68° (ENE) 17:09:57 437.365/2234.400
NOAA 15 30 Sep 17:02:51 17:06:48 22° 60° (ENE) 17:10:45 137.62
O/OREOS (USA 219) 30 Sep 17:07:55 17:12:29 65° 249° (WSW) 17:17:01 437.305
ITUPSAT 1 30 Sep 17:10:34 17:13:58 19° 299° (WNW) 17:17:22 437.325
HORYU 2 30 Sep 17:19:14 17:23:38 86° 72° (ENE) 17:28:05 437.375
SO-50 30 Sep 17:19:40 17:22:49 17° 328° (NNW) 17:25:58 436.795
SWISSCUBE 30 Sep 17:22:43 17:25:11 14° 302° (WNW) 17:27:39 437.505
STARS 30 Sep 17:24:35 17:28:49 46° 100° (E) 17:33:01 437.465
CUTE-I 30 Sep 17:28:27 17:32:55 28° 63° (ENE) 17:37:24 437.470
Cubesat XI-IV 30 Sep 17:29:17 17:33:46 29° 63° (ENE) 17:38:16 437.490
RS-15 30 Sep 17:34:15 17:35:34 10° 89° (E) 17:36:55 29.354- 29.394
BEESAT 30 Sep 17:35:55 17:37:42 12° 304° (WNW) 17:39:30 436.000
Cosmos 2504 30 Sep 17:39:20 17:42:56 14° 284° (WNW) 17:46:36 435.465 / 435.565
HO-68 30 Sep 17:40:14 17:43:00 13° 44° (NE) 17:45:45 435.675
AO-7 30 Sep 17:47:35 17:52:42 17° 272° (W) 17:57:52 29.400- 29.500
LilacSat-2 30 Sep 18:09:22 18:13:01 53° 74° (ENE) 18:16:43 437.200
